Staverton, United Kingdom

4:17 AM BST on August 31, 2016 (GMT +0100)
Gloucestershire

Weather History for EGBJ - November, 2012

Change the Weather History Date:

Friday, November 9, 2012

  Actual Average Record
Temperature  
Mean Temperature 50 °F -  
Max Temperature 53 °F 48 °F 59 °F (2011)
Min Temperature 48 °F 42 °F 33 °F (2001)
Degree Days  
Heating Degree Days 14    
Moisture  
Dew Point 41 °F    
Average Humidity 69    
Maximum Humidity 76    
Minimum Humidity 62    
Precipitation  
Precipitation 0.00 in - - ()
Sea Level Pressure  
Sea Level Pressure 29.70 in    
Wind  
Wind Speed 12 mph ()    
Max Wind Speed 16 mph    
Max Gust Speed -    
Visibility 6.2 miles    
Events      
Averages and records for this station are not official NWS values.
T = Trace of Precipitation, MM = Missing Value Source: Averaged Metar Reports

Daily Weather History Graph

Daily Weather History Graph

Search for Another Location

Airport or City:

Trip Planner

Search our weather history database for the weather conditions in past years. The results will help you decide how hot, cold, wet, or windy it might be!

Date:

Astronomy

Nov. 09, 2012 Rise Set
Actual Time 7:18 AM GMT 4:26 PM GMT
Civil Twilight 6:41 AM GMT 5:02 PM GMT
Nautical Twilight 6:00 AM GMT 5:43 PM GMT
Astronomical Twilight 5:21 AM GMT 6:22 PM GMT
Moon 1:25 AM GMT (11/9) 2:02 PM GMT (11/9)
Length of Visible Light 10h 21m
Length of Day
9h 08m
Waning Crescent, 25% of the Moon is Illuminated
Nov 9
Waning Crescent
Nov 13
New
Nov 20
First Quarter
Nov 28
Full
Dec 6
Last Quarter

Hourly Weather History & Observations

Time (GMT) Temp. Dew Point Humidity Pressure Visibility Wind Dir Wind Speed Gust Speed Precip Events Conditions
8:20 AM 48.2 °F 39.2 °F 71% 29.86 in 6.2 mi SSW 12.7 mph - N/A   Mostly Cloudy
8:50 AM 50.0 °F 39.2 °F 66% 29.83 in 6.2 mi SSW 13.8 mph - N/A   Mostly Cloudy
9:20 AM 50.0 °F 39.2 °F 66% 29.83 in 6.2 mi SSW 16.1 mph - N/A   Mostly Cloudy
9:50 AM 50.0 °F 39.2 °F 66% 29.83 in 6.2 mi SSW 13.8 mph - N/A   Mostly Cloudy
10:20 AM 50.0 °F 39.2 °F 66% 29.80 in 6.2 mi SSW 12.7 mph - N/A   Mostly Cloudy
10:50 AM 51.8 °F 39.2 °F 62% 29.80 in 6.2 mi SSW 12.7 mph - N/A   Mostly Cloudy
11:20 AM 51.8 °F 41.0 °F 67% 29.77 in 6.2 mi SSW 11.5 mph - N/A   Mostly Cloudy
11:50 AM 51.8 °F 41.0 °F 67% 29.77 in 6.2 mi SSW 13.8 mph - N/A   Mostly Cloudy
12:20 PM 53.6 °F 41.0 °F 62% 29.74 in 6.2 mi SSW 12.7 mph - N/A   Scattered Clouds
12:50 PM 53.6 °F 41.0 °F 62% 29.71 in 6.2 mi SSW 11.5 mph - N/A   Scattered Clouds
1:20 PM 53.6 °F 41.0 °F 62% 29.71 in 6.2 mi SSW 15.0 mph - N/A   Mostly Cloudy
1:50 PM 53.6 °F 41.0 °F 62% 29.68 in 6.2 mi SSW 11.5 mph - N/A   Mostly Cloudy
2:20 PM 53.6 °F 41.0 °F 62% 29.68 in 6.2 mi South 12.7 mph - N/A   Mostly Cloudy
2:50 PM 51.8 °F 41.0 °F 67% 29.68 in 6.2 mi South 10.4 mph - N/A   Mostly Cloudy
3:20 PM 51.8 °F 41.0 °F 67% 29.65 in 6.2 mi South 12.7 mph - N/A   Mostly Cloudy
3:50 PM 51.8 °F 42.8 °F 71% 29.65 in 6.2 mi South 13.8 mph - N/A   Mostly Cloudy
4:20 PM 50.0 °F 42.8 °F 76% 29.62 in 6.2 mi South 13.8 mph - N/A   Mostly Cloudy
4:50 PM 50.0 °F 42.8 °F 76% 29.62 in 6.2 mi South 15.0 mph - N/A   Partly Cloudy
5:20 PM 50.0 °F 42.8 °F 76% 29.62 in 6.2 mi South 15.0 mph - N/A   Partly Cloudy
5:50 PM 50.0 °F 42.8 °F 76% 29.59 in 6.2 mi South 13.8 mph - N/A   Partly Cloudy
6:20 PM 50.0 °F 42.8 °F 76% 29.59 in 6.2 mi South 13.8 mph - N/A   Partly Cloudy
6:50 PM 50.0 °F 42.8 °F 76% 29.56 in 6.2 mi South 15.0 mph - N/A   Mostly Cloudy
7:20 PM 50.0 °F 42.8 °F 76% 29.56 in 6.2 mi South 15.0 mph - N/A   Mostly Cloudy